User: anonymous   Login
Location: Cahas Mountain Overlook
(37.0833°N, 80.1000°W)
Time: 04:28:46
(UTC-05:00)
Language:

S-56A Canister/Altair - Orbit

View from above orbital plane
View from above orbital plane
View from above satellite
View from above satellite

Ground track
Ground track

The orbit data is extracted from the following two-line orbital elements,

1 00082U 61004B   22026.81288617 -.00000090  00000-0 -22132-4 0  9999
2 00082  38.8527 179.8021 1173997  43.0173 325.6507 12.26009884880024
Epoch (UTC): 26 January 2022 19:30:33
Eccentricity: 0.1173997
inclination: 38.8527°
perigee height: 634 km
apogee height: 2499 km
right ascension of ascending node: 179.8021°
argument of perigee: 43.0173°
revolutions per day: 12.26009884
mean anomaly at epoch: 325.6507°
orbit number at epoch: 88002

The dashed part of the orbit path shows where the satellite is in the earth's shadow,  

DLR